,,Stat5,,Stat1,,Stat2,,Stat3,,Stat4,,Wind1,,Wind1,
time,status,PA1M_AVG,status,PR1M_SUM,status,RH1M_AVG,status,SR1M_AVG,status,TA1M_AVG,status,W1dAve1m,status,W1sAve1m,
2001-03-10, 00:00:00,VALID,917.872,VALID,0,VALID,95.2343,VALID,0,VALID,20.1192,VALID,286,VALID,0,
2001-03-10, 00:01:00,VALID,917.869,VALID,0,VALID,95.3411,VALID,0,VALID,20.1154,VALID,286,VALID,0,
2001-03-10, 00:02:00,VALID,917.87,VALID,0,VALID,95.2902,VALID,0,VALID,20.1219,VALID,287,VALID,0,
2001-03-10, 00:03:00,VALID,917.869,VALID,0,VALID,95.322,VALID,-0.0169808,VALID,20.1147,VALID,287,VALID,0,
2001-03-10, 00:04:00,VALID,917.855,VALID,0,VALID,95.4276,VALID,-0.0169808,VALID,20.1386,VALID,287,VALID,0,
2001-03-10, 00:05:00,VALID,917.852,VALID,0,VALID,95.5204,VALID,0,VALID,20.1224,VALID,287,VALID,0.0472862,
2001-03-10, 00:06:00,VALID,917.847,VALID,0,VALID,95.5662,VALID,0,VALID,20.1184,VALID,208,VALID,0.495988,
2001-03-10, 00:07:00,VALID,917.833,VALID,0,VALID,95.5891,VALID,0.0169808,VALID,20.0985,VALID,102,VALID,0.368973,
2001-03-10, 00:08:00,VALID,917.844,VALID,0,VALID,95.645,VALID,0.0169808,VALID,20.0861,VALID,101,VALID,0.238381,
2001-03-10, 00:09:00,VALID,917.839,VALID,0,VALID,95.6895,VALID,0.0169808,VALID,20.06,VALID,101,VALID,0.377604,
2001-03-10, 00:10:00,VALID,917.835,VALID,0,VALID,95.734,VALID,0,VALID,20.0237,VALID,101,VALID,0.145313,
2001-03-10, 00:11:00,VALID,917.826,VALID,0,VALID,95.8447,VALID,0.0509425,VALID,20.031,VALID,101,VALID,0.0876267,
2001-03-10, 00:12:00,VALID,917.831,VALID,0,VALID,95.9947,VALID,0.0339617,VALID,20.0185,VALID,101,VALID,0.182644,
2001-03-10, 00:13:00,VALID,917.821,VALID,0,VALID,96.099,VALID,0.0509425,VALID,20.0151,VALID,101,VALID,0.22759,
2001-03-10, 00:14:00,VALID,917.819,VALID,0,VALID,96.1587,VALID,0.0339617,VALID,20.0282,VALID,103,VALID,0.231988,
2001-03-10, 00:15:00,VALID,917.811,VALID,0,VALID,96.2134,VALID,0.0169808,VALID,20.0183,VALID,103,VALID,0.297697,
2001-03-10, 00:16:00,VALID,917.81,VALID,0,VALID,96.2312,VALID,0.0169808,VALID,20.0153,VALID,103,VALID,0.109164,
2001-03-10, 00:17:00,VALID,917.802,VALID,0,VALID,96.2719,VALID,0.0509425,VALID,20.0118,VALID,103,VALID,0,
2001-03-10, 00:18:00,VALID,917.778,VALID,0,VALID,96.1994,VALID,0.0169808,VALID,19.9922,VALID,103,VALID,0,
2001-03-10, 00:19:00,VALID,917.751,VALID,0,VALID,96.3317,VALID,0.0679233,VALID,19.9795,VALID,103,VALID,0,
2001-03-10, 00:20:00,VALID,917.752,VALID,0,VALID,96.4538,VALID,0.0509425,VALID,19.9629,VALID,103,VALID,0,
2001-03-10, 00:21:00,VALID,917.761,VALID,0,VALID,96.3711,VALID,0,VALID,19.9311,VALID,102,VALID,0,
2001-03-10, 00:22:00,VALID,917.749,VALID,0,VALID,96.4207,VALID,0.0339617,VALID,19.9084,VALID,88,VALID,0.487054,
2001-03-10, 00:23:00,VALID,917.752,VALID,0,VALID,96.408,VALID,0,VALID,19.8662,VALID,86,VALID,0.576522,
2001-03-10, 00:24:00,VALID,917.731,VALID,0,VALID,96.4843,VALID,0,VALID,19.8309,VALID,95,VALID,0.399148,
2001-03-10, 00:25:00,VALID,917.731,VALID,0,VALID,96.8581,VALID,0.0339617,VALID,19.8344,VALID,100,VALID,0.532143,
2001-03-10, 00:26:00,VALID,917.721,VALID,0,VALID,97.0794,VALID,0.0509425,VALID,19.8568,VALID,101,VALID,0.793497,
2001-03-10, 00:27:00,VALID,917.717,VALID,0,VALID,97.246,VALID,0.0169808,VALID,19.8699,VALID,100,VALID,0.559966,
2001-03-10, 00:28:00,VALID,917.713,VALID,0,VALID,97.2968,VALID,0,VALID,19.8896,VALID,104,VALID,0.516036,
2001-03-10, 00:29:00,VALID,917.706,VALID,0,VALID,97.2549,VALID,0.0169808,VALID,19.8826,VALID,100,VALID,0.656467,
2001-03-10, 00:30:00,VALID,917.699,VALID,0,VALID,97.148,VALID,0.0339617,VALID,19.8761,VALID,99,VALID,0.265008,
2001-03-10, 00:31:00,VALID,917.684,VALID,0,VALID,97.1112,VALID,0.0169808,VALID,19.8896,VALID,100,VALID,0.279139,
2001-03-10, 00:32:00,VALID,917.685,VALID,0,VALID,96.9942,VALID,0.0169808,VALID,19.8764,VALID,81,VALID,0.411994,
2001-03-10, 00:33:00,VALID,917.673,VALID,0,VALID,96.909,VALID,0,VALID,19.8801,VALID,87,VALID,0.239309,
2001-03-10, 00:34:00,VALID,917.678,VALID,0,VALID,96.9395,VALID,0.0169808,VALID,19.8893,VALID,87,VALID,0.145693,
2001-03-10, 00:35:00,VALID,917.672,VALID,0,VALID,96.8429,VALID,0.0169808,VALID,19.8697,VALID,86,VALID,0.236637,
2001-03-10, 00:36:00,VALID,917.686,VALID,0,VALID,96.6661,VALID,-0.101885,VALID,19.8615,VALID,85,VALID,0.377745,
2001-03-10, 00:37:00,VALID,917.686,VALID,0,VALID,96.5593,VALID,-0.0679233,VALID,19.8451,VALID,85,VALID,0.338839,
2001-03-10, 00:38:00,VALID,917.665,VALID,0,VALID,96.6598,VALID,-0.0849042,VALID,19.8359,VALID,84,VALID,0.513622,
2001-03-10, 00:39:00,VALID,917.643,VALID,0,VALID,96.7132,VALID,-0.0849042,VALID,19.8488,VALID,84,VALID,0.862216,
2001-03-10, 00:40:00,VALID,917.636,VALID,0,VALID,96.7513,VALID,-0.0849042,VALID,19.8456,VALID,84,VALID,0.900893,
2001-03-10, 00:41:00,VALID,917.617,VALID,0,VALID,96.7322,VALID,-0.0339617,VALID,19.8521,VALID,86,VALID,0.841216,
2001-03-10, 00:42:00,VALID,917.598,VALID,0,VALID,96.7106,VALID,-0.0509425,VALID,19.8294,VALID,78,VALID,0.964316,
2001-03-10, 00:43:00,VALID,917.571,VALID,0,VALID,96.7208,VALID,-0.0339617,VALID,19.7969,VALID,82,VALID,1.12664,
2001-03-10, 00:44:00,VALID,917.561,VALID,0,VALID,96.8441,VALID,-0.0849042,VALID,19.7815,VALID,91,VALID,0.946832,
2001-03-10, 00:45:00,VALID,917.541,VALID,0,VALID,96.956,VALID,-0.0849042,VALID,19.7686,VALID,83,VALID,0.862664,
2001-03-10, 00:46:00,VALID,917.524,VALID,0,VALID,97.0794,VALID,-0.0849042,VALID,19.7651,VALID,78,VALID,0.90435,
2001-03-10, 00:47:00,VALID,917.519,VALID,0,VALID,97.0552,VALID,-0.0679233,VALID,19.7288,VALID,66,VALID,1.07491,
2001-03-10, 00:48:00,VALID,917.499,VALID,0.2,VALID,97.0069,VALID,-0.0679233,VALID,19.7199,VALID,65,VALID,0.944079,
2001-03-10, 00:49:00,VALID,917.498,VALID,0,VALID,97.0272,VALID,-0.0509425,VALID,19.7129,VALID,81,VALID,0.677365,
2001-03-10, 00:50:00,VALID,917.509,VALID,0,VALID,97.1315,VALID,-0.101885,VALID,19.7067,VALID,75,VALID,0.620477,
2001-03-10, 00:51:00,VALID,917.517,VALID,0,VALID,97.143,VALID,-0.0679233,VALID,19.7042,VALID,81,VALID,0.685389,
2001-03-10, 00:52:00,VALID,917.512,VALID,0,VALID,97.1722,VALID,-0.0849042,VALID,19.6908,VALID,81,VALID,0.91183,
2001-03-10, 00:53:00,VALID,917.518,VALID,0,VALID,97.1862,VALID,-0.0849042,VALID,19.697,VALID,86,VALID,1.13041,
2001-03-10, 00:54:00,VALID,917.527,VALID,0,VALID,97.1595,VALID,-0.0849042,VALID,19.6938,VALID,81,VALID,1.24645,
2001-03-10, 00:55:00,VALID,917.539,VALID,0,VALID,97.1468,VALID,-0.0849042,VALID,19.7005,VALID,70,VALID,1.01652,
2001-03-10, 00:56:00,VALID,917.56,VALID,0,VALID,97.1519,VALID,-0.0849042,VALID,19.6808,VALID,71,VALID,0.773226,
2001-03-10, 00:57:00,VALID,917.146,VALID,0,VALID,97.1798,VALID,-0.0509425,VALID,19.6709,VALID,74,VALID,0.753167,
2001-03-10, 00:58:00,VALID,917.571,VALID,0,VALID,97.2574,VALID,-0.0679233,VALID,19.6786,VALID,80,VALID,0.679071,
2001-03-10, 00:59:00,VALID,917.565,VALID,0,VALID,97.2917,VALID,-0.0849042,VALID,19.6746,VALID,70,VALID,0.825521,
2001-03-10, 01:00:00,VALID,917.567,VALID,0,VALID,97.2905,VALID,-0.0509425,VALID,19.6846,VALID,83,VALID,0.890625,
2001-03-10, 01:01:00,VALID,917.55,VALID,0,VALID,97.293,VALID,-0.101885,VALID,19.6846,VALID,91,VALID,1.11634,
2001-03-10, 01:02:00,VALID,917.549,VALID,0,VALID,97.2892,VALID,-0.0849042,VALID,19.698,VALID,91,VALID,0.662224,
2001-03-10, 01:03:00,VALID,917.544,VALID,0,VALID,97.2816,VALID,-0.101885,VALID,19.6943,VALID,93,VALID,0.507607,
2001-03-10, 01:04:00,VALID,917.545,VALID,0,VALID,97.2587,VALID,-0.0679233,VALID,19.6709,VALID,86,VALID,0.713049,
2001-03-10, 01:05:00,VALID,917.531,VALID,0,VALID,97.2688,VALID,-0.0679233,VALID,19.6947,VALID,89,VALID,0.37685,
2001-03-10, 01:06:00,VALID,917.515,VALID,0,VALID,97.2828,VALID,0,VALID,19.6992,VALID,85,VALID,0.405194,
2001-03-10, 01:07:00,VALID,917.52,VALID,0,VALID,97.2027,VALID,0.0169808,VALID,19.693,VALID,83,VALID,0.4125,
2001-03-10, 01:08:00,VALID,917.518,VALID,0,VALID,97.1989,VALID,0.0339617,VALID,19.7059,VALID,87,VALID,0.723357,
2001-03-10, 01:09:00,VALID,917.515,VALID,0,VALID,97.1506,VALID,0.0169808,VALID,19.7218,VALID,96,VALID,0.820313,
2001-03-10, 01:10:00,VALID,917.526,VALID,0,VALID,97.1061,VALID,0.0509425,VALID,19.7377,VALID,82,VALID,0.807143,
2001-03-10, 01:11:00,VALID,917.542,VALID,0,VALID,97.012,VALID,0.0339617,VALID,19.7509,VALID,85,VALID,0.585515,
2001-03-10, 01:12:00,VALID,917.541,VALID,0,VALID,96.9853,VALID,0,VALID,19.7482,VALID,79,VALID,0.5606,
2001-03-10, 01:13:00,VALID,917.531,VALID,0,VALID,96.9052,VALID,0.0169808,VALID,19.735,VALID,70,VALID,0.593133,
2001-03-10, 01:14:00,VALID,917.539,VALID,0,VALID,96.9026,VALID,0.0169808,VALID,19.7512,VALID,82,VALID,0.623481,
2001-03-10, 01:15:00,VALID,917.535,VALID,0.2,VALID,96.8594,VALID,0.0169808,VALID,19.7445,VALID,83,VALID,0.921669,
2001-03-10, 01:16:00,VALID,917.546,VALID,0,VALID,96.8708,VALID,0.0339617,VALID,19.7442,VALID,92,VALID,0.839949,
2001-03-10, 01:17:00,VALID,917.554,VALID,0,VALID,96.8314,VALID,0.0169808,VALID,19.7382,VALID,95,VALID,0.978171,
2001-03-10, 01:18:00,VALID,917.533,VALID,0,VALID,96.7984,VALID,0.0169808,VALID,19.7218,VALID,96,VALID,0.812294,
2001-03-10, 01:19:00,VALID,917.522,VALID,0,VALID,96.839,VALID,0.0509425,VALID,19.7221,VALID,78,VALID,0.945101,
2001-03-10, 01:20:00,VALID,917.52,VALID,0,VALID,96.8327,VALID,0,VALID,19.7348,VALID,83,VALID,0.823808,
2001-03-10, 01:21:00,VALID,917.526,VALID,0,VALID,96.82,VALID,-0.0849042,VALID,19.7201,VALID,88,VALID,0.923353,
2001-03-10, 01:22:00,VALID,917.534,VALID,0,VALID,96.8263,VALID,-0.0679233,VALID,19.7203,VALID,80,VALID,0.929241,
2001-03-10, 01:23:00,VALID,917.529,VALID,0,VALID,96.8136,VALID,-0.0849042,VALID,19.7072,VALID,75,VALID,0.824119,
2001-03-10, 01:24:00,VALID,917.529,VALID,0,VALID,96.7678,VALID,-0.0849042,VALID,19.7169,VALID,84,VALID,1.01207,
2001-03-10, 01:25:00,VALID,917.508,VALID,0,VALID,96.7449,VALID,-0.0679233,VALID,19.7102,VALID,92,VALID,1.34598,
2001-03-10, 01:26:00,VALID,917.499,VALID,0,VALID,96.7271,VALID,-0.0679233,VALID,19.7176,VALID,78,VALID,0.967694,
2001-03-10, 01:27:00,VALID,917.5,VALID,0,VALID,96.689,VALID,-0.0849042,VALID,19.7074,VALID,75,VALID,1.01964,
2001-03-10, 01:28:00,VALID,917.509,VALID,0,VALID,96.7335,VALID,-0.0679233,VALID,19.7037,VALID,74,VALID,0.883635,
2001-03-10, 01:29:00,VALID,917.492,VALID,0,VALID,96.7106,VALID,-0.0679233,VALID,19.7141,VALID,75,VALID,0.910807,
2001-03-10, 01:30:00,VALID,917.486,VALID,0,VALID,96.6585,VALID,-0.0849042,VALID,19.7069,VALID,84,VALID,1.07031,
2001-03-10, 01:31:00,VALID,917.48,VALID,0,VALID,96.6483,VALID,-0.0509425,VALID,19.7104,VALID,95,VALID,0.894637,
2001-03-10, 01:32:00,VALID,917.475,VALID,0,VALID,96.6343,VALID,-0.0509425,VALID,19.7236,VALID,86,VALID,0.810202,
2001-03-10, 01:33:00,VALID,917.467,VALID,0,VALID,96.6636,VALID,-0.0679233,VALID,19.7069,VALID,74,VALID,0.728207,
2001-03-10, 01:34:00,VALID,917.451,VALID,0,VALID,96.633,VALID,-0.0679233,VALID,19.7072,VALID,84,VALID,1.01014,
2001-03-10, 01:35:00,VALID,917.447,VALID,0,VALID,96.6598,VALID,-0.101885,VALID,19.7067,VALID,84,VALID,0.947163,
2001-03-10, 01:36:00,VALID,917.446,VALID,0,VALID,96.703,VALID,-0.0679233,VALID,19.7169,VALID,77,VALID,0.611064,
2001-03-10, 01:37:00,VALID,917.439,VALID,0,VALID,96.6992,VALID,-0.0849042,VALID,19.7131,VALID,78,VALID,0.41808,
2001-03-10, 01:38:00,VALID,917.437,VALID,0,VALID,96.6839,VALID,-0.0849042,VALID,19.7102,VALID,71,VALID,0.356571,
2001-03-10, 01:39:00,VALID,917.431,VALID,0,VALID,96.6394,VALID,-0.101885,VALID,19.7107,VALID,63,VALID,0.349432,
2001-03-10, 01:40:00,VALID,917.419,VALID,0,VALID,96.6267,VALID,-0.101885,VALID,19.7141,VALID,67,VALID,0.445982,
2001-03-10, 01:41:00,VALID,917.412,VALID,0,VALID,96.628,VALID,-0.101885,VALID,19.6846,VALID,64,VALID,0.443623,
2001-03-10, 01:42:00,VALID,917.423,VALID,0,VALID,96.717,VALID,-0.118866,VALID,19.6913,VALID,66,VALID,0.326858,
2001-03-10, 01:43:00,VALID,917.423,VALID,0,VALID,96.7742,VALID,-0.101885,VALID,19.6846,VALID,78,VALID,0.625206,
2001-03-10, 01:44:00,VALID,917.418,VALID,0,VALID,96.7589,VALID,-0.118866,VALID,19.6853,VALID,69,VALID,0.726563,
2001-03-10, 01:45:00,VALID,917.414,VALID,0,VALID,96.7945,VALID,-0.0849042,VALID,19.6721,VALID,70,VALID,0.468339,
2001-03-10, 01:46:00,VALID,917.411,VALID,0,VALID,96.8467,VALID,-0.0679233,VALID,19.6692,VALID,67,VALID,0.539063,
2001-03-10, 01:47:00,VALID,917.414,VALID,0,VALID,96.9001,VALID,-0.101885,VALID,19.659,VALID,61,VALID,0.276195,
2001-03-10, 01:48:00,VALID,917.4,VALID,0,VALID,97.0044,VALID,-0.101885,VALID,19.6523,VALID,53,VALID,0.257813,
2001-03-10, 01:49:00,VALID,917.393,VALID,0,VALID,97.1379,VALID,-0.0509425,VALID,19.6659,VALID,66,VALID,0.0392736,
2001-03-10, 01:50:00,VALID,917.372,VALID,0,VALID,97.265,VALID,-0.0679233,VALID,19.6692,VALID,80,VALID,0.0559211,
2001-03-10, 01:51:00,VALID,917.361,VALID,0,VALID,97.2943,VALID,-0.0849042,VALID,19.6652,VALID,82,VALID,0,
2001-03-10, 01:52:00,VALID,917.366,VALID,0,VALID,97.3401,VALID,-0.0509425,VALID,19.6525,VALID,81,VALID,0,
2001-03-10, 01:53:00,VALID,917.363,VALID,0,VALID,97.4087,VALID,-0.0169808,VALID,19.659,VALID,49,VALID,0,
2001-03-10, 01:54:00,VALID,917.352,VALID,0,VALID,97.4227,VALID,-0.0339617,VALID,19.6428,VALID,32,VALID,0,
2001-03-10, 01:55:00,VALID,917.34,VALID,0,VALID,97.5321,VALID,-0.0169808,VALID,19.6229,VALID,30,VALID,0,
2001-03-10, 01:56:00,VALID,917.319,VALID,0,VALID,97.5639,VALID,-0.0679233,VALID,19.6103,VALID,30,VALID,0,
2001-03-10, 01:57:00,VALID,917.31,VALID,0,VALID,97.6363,VALID,-0.0679233,VALID,19.6108,VALID,30,VALID,0,
2001-03-10, 01:58:00,VALID,917.293,VALID,0,VALID,97.6999,VALID,-0.0509425,VALID,19.6008,VALID,30,VALID,0,
2001-03-10, 01:59:00,VALID,917.275,VALID,0,VALID,97.78,VALID,-0.0169808,VALID,19.5941,VALID,30,VALID,0,
2001-03-10, 02:00:00,VALID,917.253,VALID,0,VALID,97.8334,VALID,0,VALID,19.5847,VALID,30,VALID,0,
2001-03-10, 02:01:00,VALID,917.238,VALID,0,VALID,97.8741,VALID,-0.0679233,VALID,19.5881,VALID,30,VALID,0,
2001-03-10, 02:02:00,VALID,917.22,VALID,0,VALID,97.9364,VALID,0,VALID,19.568,VALID,30,VALID,0,
2001-03-10, 02:03:00,VALID,917.19,VALID,0,VALID,97.9886,VALID,0,VALID,19.5812,VALID,30,VALID,0,
2001-03-10, 02:04:00,VALID,917.173,VALID,0,VALID,98.028,VALID,-0.0169808,VALID,19.575,VALID,33,VALID,0,
2001-03-10, 02:05:00,VALID,917.121,VALID,0.2,VALID,98.0598,VALID,0,VALID,19.5549,VALID,54,VALID,0,
2001-03-10, 02:06:00,VALID,917.121,VALID,0,VALID,98.0801,VALID,-0.0169808,VALID,19.5618,VALID,78,VALID,0,
2001-03-10, 02:07:00,VALID,917.096,VALID,0,VALID,98.1221,VALID,-0.0169808,VALID,19.5588,VALID,95,VALID,0,
2001-03-10, 02:08:00,VALID,917.084,VALID,0,VALID,98.1043,VALID,0,VALID,19.5392,VALID,95,VALID,0,
2001-03-10, 02:09:00,VALID,917.07,VALID,0,VALID,98.1246,VALID,0,VALID,19.5196,VALID,94,VALID,0,
2001-03-10, 02:10:00,VALID,917.052,VALID,0,VALID,98.1501,VALID,-0.0339617,VALID,19.5034,VALID,92,VALID,0,
2001-03-10, 02:11:00,VALID,917.031,VALID,0,VALID,98.1882,VALID,-0.0169808,VALID,19.5106,VALID,91,VALID,0,
2001-03-10, 02:12:00,VALID,917.016,VALID,0,VALID,98.2264,VALID,-0.0339617,VALID,19.5071,VALID,91,VALID,0,
2001-03-10, 02:13:00,VALID,917.005,VALID,0,VALID,98.2594,VALID,0,VALID,19.4907,VALID,90,VALID,0,
2001-03-10, 02:14:00,VALID,917.005,VALID,0,VALID,98.2836,VALID,-0.0339617,VALID,19.487,VALID,89,VALID,0,
2001-03-10, 02:15:00,VALID,916.982,VALID,0,VALID,98.3268,VALID,-0.0169808,VALID,19.4873,VALID,89,VALID,0,
2001-03-10, 02:16:00,VALID,916.972,VALID,0,VALID,98.3573,VALID,-0.0509425,VALID,19.5007,VALID,89,VALID,0,
2001-03-10, 02:17:00,VALID,916.953,VALID,0,VALID,98.3612,VALID,0,VALID,19.487,VALID,95,VALID,0.341682,
2001-03-10, 02:18:00,VALID,916.936,VALID,0,VALID,98.3548,VALID,-0.0169808,VALID,19.4915,VALID,90,VALID,0.862664,
2001-03-10, 02:19:00,VALID,916.913,VALID,0,VALID,98.3523,VALID,0,VALID,19.4781,VALID,101,VALID,0.633024,
2001-03-10, 02:20:00,VALID,916.905,VALID,0,VALID,98.3319,VALID,-0.0169808,VALID,19.4555,VALID,90,VALID,0.838199,
2001-03-10, 02:21:00,VALID,916.899,VALID,0,VALID,98.3065,VALID,-0.0339617,VALID,19.4455,VALID,79,VALID,0.837627,
2001-03-10, 02:22:00,VALID,916.887,VALID,0,VALID,98.3052,VALID,-0.0679233,VALID,19.4299,VALID,89,VALID,0.541518,
2001-03-10, 02:23:00,VALID,916.863,VALID,0,VALID,98.3306,VALID,-0.0339617,VALID,19.4296,VALID,88,VALID,0.0921474,
2001-03-10, 02:24:00,VALID,916.85,VALID,0,VALID,98.3205,VALID,0,VALID,19.4299,VALID,88,VALID,0.0835701,
2001-03-10, 02:25:00,VALID,916.851,VALID,0,VALID,98.3357,VALID,-0.0339617,VALID,19.4194,VALID,76,VALID,0.483705,
2001-03-10, 02:26:00,VALID,916.853,VALID,0,VALID,98.3319,VALID,-0.0339617,VALID,19.4234,VALID,66,VALID,0.0893159,
2001-03-10, 02:27:00,VALID,916.854,VALID,0,VALID,98.3395,VALID,-0.0339617,VALID,19.4164,VALID,66,VALID,0,
2001-03-10, 02:28:00,VALID,916.844,VALID,0,VALID,98.3662,VALID,-0.0169808,VALID,19.4234,VALID,66,VALID,0,
2001-03-10, 02:29:00,VALID,916.817,VALID,0,VALID,98.3904,VALID,-0.0509425,VALID,19.4425,VALID,66,VALID,0,
2001-03-10, 02:30:00,VALID,916.81,VALID,0,VALID,98.4133,VALID,0,VALID,19.4289,VALID,66,VALID,0,
2001-03-10, 02:31:00,VALID,916.802,VALID,0,VALID,98.4044,VALID,-0.0169808,VALID,19.4386,VALID,66,VALID,0,
2001-03-10, 02:32:00,VALID,916.785,VALID,0,VALID,98.4082,VALID,-0.0169808,VALID,19.4227,VALID,66,VALID,0,
2001-03-10, 02:33:00,VALID,916.763,VALID,0,VALID,98.4362,VALID,0,VALID,19.4324,VALID,66,VALID,0,
2001-03-10, 02:34:00,VALID,916.74,VALID,0,VALID,98.4476,VALID,0.0169808,VALID,19.4351,VALID,73,VALID,0.488176,
2001-03-10, 02:35:00,VALID,916.731,VALID,0,VALID,98.4146,VALID,-0.0339617,VALID,19.4356,VALID,52,VALID,0.282895,
2001-03-10, 02:36:00,VALID,916.716,VALID,0,VALID,98.3815,VALID,0.101885,VALID,19.454,VALID,52,VALID,0.104096,
2001-03-10, 02:37:00,VALID,916.708,VALID,0,VALID,98.3599,VALID,0.0679233,VALID,19.4734,VALID,78,VALID,0.311161,
2001-03-10, 02:38:00,VALID,916.682,VALID,0,VALID,98.3116,VALID,0.0849042,VALID,19.4763,VALID,82,VALID,0.0947516,
2001-03-10, 02:39:00,VALID,916.669,VALID,0,VALID,98.2734,VALID,0.0849042,VALID,19.4828,VALID,82,VALID,0.325994,
2001-03-10, 02:40:00,VALID,916.648,VALID,0,VALID,98.2607,VALID,0.0509425,VALID,19.4925,VALID,89,VALID,0.248214,
2001-03-10, 02:41:00,VALID,916.622,VALID,0,VALID,98.1971,VALID,0.101885,VALID,19.4923,VALID,95,VALID,0.429899,
2001-03-10, 02:42:00,VALID,916.591,VALID,0,VALID,98.1348,VALID,0.0339617,VALID,19.5121,VALID,109,VALID,0.493032,
2001-03-10, 02:43:00,VALID,916.574,VALID,0,VALID,98.0801,VALID,0.101885,VALID,19.5213,VALID,111,VALID,0.503701,
2001-03-10, 02:44:00,VALID,916.576,VALID,0,VALID,97.9911,VALID,0.101885,VALID,19.5054,VALID,97,VALID,0.517361,
2001-03-10, 02:45:00,VALID,916.578,VALID,0,VALID,97.9403,VALID,0.0679233,VALID,19.5052,VALID,92,VALID,0.228413,
2001-03-10, 02:46:00,VALID,916.565,VALID,0,VALID,97.9593,VALID,0.101885,VALID,19.525,VALID,91,VALID,0.0599662,
2001-03-10, 02:47:00,VALID,916.553,VALID,0,VALID,97.8919,VALID,0.101885,VALID,19.5385,VALID,91,VALID,0.207491,
2001-03-10, 02:48:00,VALID,916.536,VALID,0,VALID,97.8525,VALID,0.0679233,VALID,19.5375,VALID,103,VALID,0.0252878,
2001-03-10, 02:49:00,VALID,916.503,VALID,0,VALID,97.8233,VALID,0.0509425,VALID,19.5345,VALID,105,VALID,0.0392736,
2001-03-10, 02:50:00,VALID,916.51,VALID,0,VALID,97.7978,VALID,0.101885,VALID,19.5444,VALID,109,VALID,0.267475,
2001-03-10, 02:51:00,VALID,916.491,VALID,0,VALID,97.766,VALID,0.0679233,VALID,19.5377,VALID,109,VALID,0.107686,
2001-03-10, 02:52:00,VALID,916.49,VALID,0,VALID,97.6834,VALID,0.101885,VALID,19.5504,VALID,109,VALID,0.00357143,
2001-03-10, 02:53:00,VALID,916.477,VALID,0,VALID,97.5855,VALID,0.101885,VALID,19.5442,VALID,109,VALID,0.015625,
2001-03-10, 02:54:00,VALID,916.482,VALID,0,VALID,97.485,VALID,0.101885,VALID,19.534,VALID,109,VALID,0,
2001-03-10, 02:55:00,VALID,916.468,VALID,0,VALID,97.4291,VALID,0.101885,VALID,19.5308,VALID,109,VALID,0,
2001-03-10, 02:56:00,VALID,916.446,VALID,0,VALID,97.3668,VALID,0.0509425,VALID,19.5181,VALID,109,VALID,0,
2001-03-10, 02:57:00,VALID,916.433,VALID,0,VALID,97.2981,VALID,0.0679233,VALID,19.5283,VALID,109,VALID,0,
2001-03-10, 02:58:00,VALID,916.428,VALID,0,VALID,97.2905,VALID,0.0679233,VALID,19.5223,VALID,113,VALID,0,
2001-03-10, 02:59:00,VALID,916.401,VALID,0,VALID,97.3095,VALID,0.0849042,VALID,19.5086,VALID,123,VALID,0,
2001-03-10, 03:00:00,VALID,916.393,VALID,0,VALID,97.3833,VALID,0.0849042,VALID,19.5318,VALID,123,VALID,0,
2001-03-10, 03:01:00,VALID,916.378,VALID,0,VALID,97.3973,VALID,0.0679233,VALID,19.5283,VALID,123,VALID,0,
2001-03-10, 03:02:00,VALID,916.368,VALID,0,VALID,97.3629,VALID,0.0849042,VALID,19.5151,VALID,123,VALID,0,
2001-03-10, 03:03:00,VALID,916.37,VALID,0,VALID,97.3337,VALID,0.101885,VALID,19.5156,VALID,123,VALID,0,
2001-03-10, 03:04:00,VALID,916.369,VALID,0,VALID,97.2892,VALID,0.0679233,VALID,19.5124,VALID,140,VALID,0,
2001-03-10, 03:05:00,VALID,916.379,VALID,0,VALID,97.2727,VALID,0.0339617,VALID,19.5062,VALID,218,VALID,0,
2001-03-10, 03:06:00,VALID,916.387,VALID,0,VALID,97.3248,VALID,0.0679233,VALID,19.4831,VALID,223,VALID,0.195946,
2001-03-10, 03:07:00,VALID,916.385,VALID,0,VALID,97.3973,VALID,0.0679233,VALID,19.4667,VALID,236,VALID,0.64442,
2001-03-10, 03:08:00,VALID,916.389,VALID,0,VALID,97.457,VALID,0.0679233,VALID,19.448,VALID,242,VALID,0.63742,
2001-03-10, 03:09:00,VALID,916.38,VALID,0,VALID,97.5753,VALID,0.0679233,VALID,19.4219,VALID,238,VALID,0.419744,
2001-03-10, 03:10:00,VALID,916.378,VALID,0,VALID,97.6821,VALID,0.0509425,VALID,19.409,VALID,238,VALID,0.395759,
2001-03-10, 03:11:00,VALID,916.363,VALID,0,VALID,97.7762,VALID,0.101885,VALID,19.3891,VALID,239,VALID,0.331503,
2001-03-10, 03:12:00,VALID,916.339,VALID,0,VALID,97.8538,VALID,0.101885,VALID,19.3732,VALID,239,VALID,0.372255,
2001-03-10, 03:13:00,VALID,916.334,VALID,0,VALID,97.9377,VALID,0.0849042,VALID,19.3668,VALID,239,VALID,0.439762,
2001-03-10, 03:14:00,VALID,916.322,VALID,0,VALID,97.9949,VALID,0.0509425,VALID,19.3472,VALID,238,VALID,0.416667,
2001-03-10, 03:15:00,VALID,916.313,VALID,0,VALID,98.0611,VALID,0.0679233,VALID,19.3606,VALID,229,VALID,0.207442,
2001-03-10, 03:16:00,VALID,916.3,VALID,0,VALID,98.0814,VALID,0.0849042,VALID,19.3467,VALID,229,VALID,0.041174,
2001-03-10, 03:17:00,VALID,916.294,VALID,0,VALID,98.0878,VALID,0.0849042,VALID,19.3541,VALID,228,VALID,0,
2001-03-10, 03:18:00,VALID,916.294,VALID,0,VALID,98.1106,VALID,0.101885,VALID,19.331,VALID,228,VALID,0,
2001-03-10, 03:19:00,VALID,916.274,VALID,0,VALID,98.1246,VALID,0.0509425,VALID,19.3347,VALID,228,VALID,0.149916,
2001-03-10, 03:20:00,VALID,916.281,VALID,0,VALID,98.1246,VALID,0.0509425,VALID,19.3181,VALID,228,VALID,0,
2001-03-10, 03:21:00,VALID,916.252,VALID,0,VALID,98.1424,VALID,0.0679233,VALID,19.3121,VALID,228,VALID,0,
2001-03-10, 03:22:00,VALID,916.245,VALID,0,VALID,98.1615,VALID,0.101885,VALID,19.2925,VALID,228,VALID,0,
2001-03-10, 03:23:00,VALID,916.241,VALID,0,VALID,98.1793,VALID,0.0849042,VALID,19.2858,VALID,228,VALID,0,
2001-03-10, 03:24:00,VALID,916.233,VALID,0,VALID,98.2187,VALID,0.0679233,VALID,19.2925,VALID,228,VALID,0,
2001-03-10, 03:25:00,VALID,916.241,VALID,0,VALID,98.2264,VALID,0.101885,VALID,19.2826,VALID,228,VALID,0,
2001-03-10, 03:26:00,VALID,916.221,VALID,0,VALID,98.173,VALID,0.101885,VALID,19.2666,VALID,227,VALID,0,
2001-03-10, 03:27:00,VALID,916.216,VALID,0,VALID,98.1755,VALID,0.0679233,VALID,19.2373,VALID,219,VALID,0.143792,
2001-03-10, 03:28:00,VALID,916.218,VALID,0,VALID,98.2582,VALID,0.101885,VALID,19.2339,VALID,214,VALID,0.441612,
2001-03-10, 03:29:00,VALID,916.21,VALID,0,VALID,98.2887,VALID,0.0679233,VALID,19.2475,VALID,220,VALID,0.622179,
2001-03-10, 03:30:00,VALID,916.214,VALID,0,VALID,98.309,VALID,0.0849042,VALID,19.244,VALID,230,VALID,0.557771,
2001-03-10, 03:31:00,VALID,916.228,VALID,0,VALID,98.3154,VALID,0.0849042,VALID,19.2445,VALID,225,VALID,0.652238,
2001-03-10, 03:32:00,VALID,916.22,VALID,0,VALID,98.3535,VALID,0.0849042,VALID,19.2478,VALID,230,VALID,0.785846,
2001-03-10, 03:33:00,VALID,916.235,VALID,0,VALID,98.4527,VALID,0.0679233,VALID,19.2604,VALID,227,VALID,0.822574,
2001-03-10, 03:34:00,VALID,916.232,VALID,0,VALID,98.4731,VALID,0.0849042,VALID,19.283,VALID,228,VALID,0.665963,
2001-03-10, 03:35:00,VALID,916.237,VALID,0,VALID,98.4489,VALID,0.101885,VALID,19.2729,VALID,230,VALID,0.580798,